User: anonymous   Login
Location: Unspecified
(0.0000°N, 0.0000°E)
Time: 21:38:47
(UTC+00:00)
Language:

AAUSAT 4 - Orbit

View from above orbital plane
View from above orbital plane
View from above satellite
View from above satellite

Ground track
Ground track

The orbit data is extracted from the following two-line orbital elements,

1 41460U 16025E   18049.39161990  .00001237  00000-0  68571-4 0  9993
2 41460  98.1459 106.0449 0163908 182.6928 177.3424 15.05288940 99615
Epoch (UTC): 18 February 2018 09:23:55
Eccentricity: 0.0163908
inclination: 98.1459°
perigee height: 437 km
apogee height: 664 km
right ascension of ascending node: 106.0449°
argument of perigee: 182.6928°
revolutions per day: 15.05288940
mean anomaly at epoch: 177.3424°
orbit number at epoch: 9961

The dashed part of the orbit path shows where the satellite is in the earth's shadow,  

DLR